Date,TemperatureHighF,TemperatureAvgF,TemperatureLowF,DewpointHighF,DewpointAvgF,DewpointLowF,HumidityHigh,HumidityAvg,HumidityLow,PressureMaxIn,PressureMinIn,WindSpeedMaxMPH,WindSpeedAvgMPH,GustSpeedMaxMPH,PrecipitationSumIn
2013-1-1,15.0,2.5,-12.0,10.0,-3.5,-17.0,82,75,64,0.00,40.00,0,-999,0,0.00
2013-1-2,19.0,17.0,15.0,16.0,13.8,10.0,89,86,80,0.00,40.00,0,-999,0,0.00
2013-1-3,20.0,15.0,11.0,18.0,8.0,0.0,88,74,50,0.00,40.00,0,-999,0,0.00
2013-1-4,33.0,18.4,10.0,14.0,10.4,7.0,87,72,44,0.00,40.00,0,-999,0,0.00
2013-1-5,28.0,16.1,5.0,18.0,9.5,1.0,87,76,47,0.00,40.00,0,-999,0,0.00
2013-1-6,26.0,15.9,10.0,18.0,6.7,1.0,82,68,39,0.00,40.00,0,-999,0,0.00
2013-1-7,37.0,25.5,12.0,21.0,17.0,7.0,86,71,48,0.00,40.00,0,-999,0,0.00
2013-1-8,35.0,23.9,10.0,27.0,19.0,9.0,91,82,59,0.00,40.00,0,-999,0,0.00
2013-1-9,34.0,28.1,20.0,25.0,18.5,14.0,83,67,48,0.00,40.00,0,-999,0,0.00
2013-1-10,42.0,31.3,20.0,32.0,20.1,14.0,92,66,37,0.00,40.00,0,-999,0,0.00
2013-1-11,39.0,35.7,33.0,37.0,34.0,32.0,92,92,92,0.00,40.00,0,-999,0,0.00
2013-1-12,39.0,18.3,7.0,37.0,10.6,-2.0,92,71,57,0.00,40.00,0,-999,0,0.00
2013-1-13,8.0,4.7,1.0,0.0,-3.2,-6.0,75,69,61,0.00,40.00,0,-999,0,0.00
2013-1-14,13.0,5.9,-1.0,1.0,-3.0,-6.0,77,67,47,0.00,40.00,0,-999,0,0.00
2013-1-15,27.0,15.0,3.0,10.0,4.5,0.0,82,64,37,0.00,40.00,0,-999,0,0.00
2013-1-16,31.0,22.7,7.0,27.0,9.1,-11.0,88,58,32,0.00,40.00,0,-999,0,0.00
2013-1-17,16.0,8.3,4.0,1.0,-4.9,-11.0,74,54,43,0.00,40.00,0,-999,0,0.00
2013-1-18,34.0,19.9,8.0,21.0,13.2,1.0,84,75,59,0.00,40.00,0,-999,0,0.00
2013-1-19,35.0,17.2,2.0,25.0,8.6,-9.0,89,69,44,0.00,40.00,0,-999,0,0.00
2013-1-20,5.0,-1.1,-8.0,-6.0,-10.3,-17.0,74,64,55,0.00,40.00,0,-999,0,0.00
2013-1-21,-4.0,-9.5,-15.0,-17.0,-20.7,-24.0,67,57,48,0.00,40.00,0,-999,0,0.00
2013-1-22,-2.0,-9.3,-20.0,-13.0,-18.4,-26.0,72,64,52,0.00,40.00,0,-999,0,0.00
2013-1-23,12.0,0.6,-10.0,3.0,-11.3,-22.0,75,57,38,0.00,40.00,0,-999,0,0.00
2013-1-24,7.0,-3.3,-12.0,-4.0,-14.8,-22.0,61,57,52,0.00,40.00,0,-999,0,0.00
2013-1-25,17.0,11.1,1.0,10.0,1.6,-6.0,81,65,52,0.00,40.00,0,-999,0,0.00
2013-1-26,17.0,7.1,-7.0,5.0,-2.8,-11.0,79,64,47,0.00,40.00,0,-999,0,0.00
2013-1-27,35.0,24.4,15.0,27.0,16.2,5.0,91,71,46,0.00,40.00,0,-999,0,0.01
2013-1-28,32.0,29.2,25.0,30.0,26.6,23.0,92,90,86,0.00,40.00,0,-999,0,0.01
2013-1-29,35.0,30.7,23.0,32.0,25.1,14.0,92,81,65,0.00,40.00,0,-999,0,0.00
2013-1-30,23.0,15.0,8.0,16.0,5.5,-2.0,80,66,55,0.00,40.00,0,-999,0,0.00
2013-1-31,8.0,1.0,-10.0,-2.0,-11.6,-22.0,69,54,45,0.00,40.00,0,-999,0,0.00